| time (UTC) | temp F | wind direction | speed MPH | gust MPH | rain 1hr in | rain 24hr in | rain mn in | humidity % | barometer mb |
| 20260902050009 | 58 | 314 | 0.0 | 2.0 | 0.00 | 8.40 | 1.57 | 74 | 1004.0 |
| 20260902044504 | 60 | 1 | 0.0 | 2.0 | 0.00 | 8.40 | 1.57 | 70 | 1004.1 |
| 20260902043058 | 62 | 206 | 0.0 | 2.0 | 0.00 | 8.40 | 1.57 | 69 | 1004.2 |
| 20260902041608 | 63 | 35 | 0.0 | 3.0 | 0.00 | 8.40 | 1.57 | 69 | 1004.2 |
| 20260902040053 | 63 | 206 | 0.0 | 3.0 | 0.00 | 8.40 | 1.57 | 69 | 1004.2 |
| 20260902034554 | 64 | 310 | 1.0 | 3.0 | 0.00 | 8.40 | 1.57 | 68 | 1004.0 |
| 20260902033056 | 63 | 1 | 0.0 | 2.0 | 0.00 | 8.40 | 1.57 | 68 | 1004.0 |
| 20260902031550 | 64 | 135 | 1.0 | 2.0 | 0.00 | 8.40 | 1.57 | 65 | 1003.9 |
| 20260902030047 | 65 | 143 | 2.0 | 6.0 | 0.00 | 8.40 | 1.57 | 62 | 1003.8 |
| 20260902024542 | 66 | 89 | 2.0 | 5.0 | 0.00 | 8.40 | 1.57 | 59 | 1003.8 |
| 20260902023044 | 66 | 68 | 2.0 | 4.0 | 0.00 | 8.40 | 1.57 | 59 | 1003.6 |
| 20260902021545 | 67 | 63 | 1.0 | 3.0 | 0.00 | 8.40 | 1.57 | 55 | 1003.4 |
| 20260902020030 | 69 | 89 | 1.0 | 3.0 | 0.00 | 8.40 | 1.57 | 53 | 1003.3 |
| 20260902014527 | 70 | 46 | 1.0 | 4.0 | 0.00 | 8.40 | 1.57 | 52 | 1003.1 |
| 20260902013026 | 71 | 74 | 2.0 | 5.0 | 0.00 | 8.40 | 1.57 | 50 | 1002.8 |
| 20260902011526 | 72 | 21 | 2.0 | 7.0 | 0.00 | 8.40 | 1.57 | 47 | 1002.8 |
| 20260902010056 | 72 | 53 | 3.0 | 7.0 | 0.00 | 8.40 | 1.57 | 46 | 1002.8 |
| 20260902004555 | 73 | 75 | 5.0 | 11.0 | 0.01 | 8.40 | 1.57 | 45 | 1002.7 |
| 20260902003057 | 74 | 63 | 7.0 | 12.0 | 0.01 | 8.40 | 1.57 | 43 | 1002.6 |
| 20260902001551 | 75 | 94 | 5.0 | 10.0 | 0.01 | 8.40 | 1.57 | 42 | 1002.7 |
| 20260902000112 | 77 | 103 | 5.0 | 13.0 | 0.01 | 8.40 | 1.57 | 39 | 1002.9 |
| 20260901234549 | 79 | 28 | 3.0 | 7.0 | 0.01 | 8.39 | 1.56 | 35 | 1002.4 |
| 20260901233046 | 79 | 47 | 3.0 | 6.0 | 0.01 | 8.39 | 1.56 | 33 | 1002.6 |
| 20260901231550 | 80 | 128 | 6.0 | 10.0 | 0.01 | 8.39 | 1.56 | 33 | 1002.6 |
| 20260901230046 | 80 | 171 | 1.0 | 11.0 | 0.01 | 8.39 | 1.56 | 33 | 1002.6 |
| 20260901224540 | 80 | 46 | 3.0 | 7.0 | 0.00 | 8.38 | 1.55 | 34 | 1002.6 |
| 20260901223038 | 78 | 168 | 2.0 | 6.0 | 0.00 | 8.38 | 1.55 | 35 | 1002.7 |
| 20260901221537 | 79 | 178 | 6.0 | 11.0 | 0.01 | 8.38 | 1.55 | 34 | 1002.8 |
| 20260901220054 | 80 | 70 | 7.0 | 13.0 | 0.08 | 8.38 | 1.55 | 34 | 1002.9 |
| 20260901214529 | 77 | 324 | 1.0 | 5.0 | 0.21 | 8.38 | 1.55 | 37 | 1003.1 |
| 20260901213117 | 77 | 146 | 5.0 | 11.0 | 0.24 | 8.38 | 1.55 | 37 | 1003.4 |
| 20260901211600 | 79 | 110 | 9.0 | 15.0 | 0.48 | 8.36 | 1.54 | 36 | 1003.6 |
| 20260901210101 | 79 | 168 | 9.0 | 19.0 | 0.44 | 8.30 | 1.47 | 35 | 1003.6 |
| 20260901204550 | 79 | 152 | 5.0 | 12.0 | 0.31 | 8.19 | 1.34 | 36 | 1003.7 |
| 20260901203100 | 79 | 144 | 8.0 | 16.0 | 0.35 | 8.11 | 1.25 | 36 | 1004.1 |
| 20260901201545 | 77 | 18 | 6.0 | 15.0 | 0.26 | 7.92 | 1.06 | 38 | 1004.2 |
| 20260901200043 | 77 | 178 | 6.0 | 13.0 | 0.43 | 7.89 | 1.03 | 37 | 1004.6 |
| 20260901194542 | 76 | 142 | 7.0 | 15.0 | 0.59 | 7.89 | 1.03 | 40 | 1004.8 |
| 20260901193042 | 76 | 110 | 6.0 | 27.0 | 0.55 | 7.76 | 0.90 | 39 | 1004.9 |
| 20260901191535 | 76 | 126 | 10.0 | 19.0 | 0.38 | 7.59 | 0.73 | 41 | 1005.0 |
| 20260901190104 | 75 | 149 | 11.0 | 17.0 | 0.30 | 7.46 | 0.60 | 40 | 1005.4 |
| 20260901184600 | 74 | 96 | 12.0 | 20.0 | 0.18 | 7.30 | 0.44 | 42 | 1005.6 |
| 20260901183058 | 73 | 96 | 9.0 | 17.0 | 0.15 | 7.21 | 0.35 | 44 | 1005.7 |
| 20260901181550 | 73 | 103 | 12.0 | 19.0 | 0.15 | 7.21 | 0.35 | 44 | 1006.0 |
| 20260901180045 | 73 | 123 | 12.0 | 17.0 | 0.28 | 7.16 | 0.30 | 45 | 1006.2 |
| 20260901174542 | 72 | 137 | 12.0 | 17.0 | 0.40 | 7.10 | 0.24 | 45 | 1006.5 |
| 20260901173009 | 71 | 115 | 12.0 | 18.0 | 0.44 | 7.06 | 0.20 | 46 | 1006.7 |
| 20260901171506 | 70 | 145 | 7.0 | 13.0 | 0.86 | 7.06 | 0.20 | 47 | 1006.9 |
| 20260901170107 | 70 | 135 | 8.0 | 13.0 | 1.11 | 6.88 | 0.02 | 44 | 1007.1 |
| 20260901164615 | 70 | 144 | 8.0 | 12.0 | 1.53 | 6.70 | 6.70 | 46 | 1007.3 |
| 20260901163058 | 70 | 147 | 7.0 | 14.0 | 1.83 | 6.62 | 6.62 | 45 | 1007.4 |
| 20260901161559 | 70 | 148 | 8.0 | 14.0 | 1.82 | 6.20 | 6.20 | 45 | 1007.3 |
| 20260901160058 | 71 | 139 | 9.0 | 16.0 | 1.86 | 5.74 | 5.74 | 41 | 1007.2 |
| 20260901154554 | 71 | 145 | 8.0 | 17.0 | 1.65 | 5.15 | 5.15 | 39 | 1007.0 |
| 20260901153053 | 71 | 143 | 9.0 | 14.0 | 1.29 | 4.79 | 4.79 | 38 | 1007.1 |
| 20260901151553 | 70 | 161 | 8.0 | 18.0 | 0.84 | 4.34 | 4.34 | 42 | 1007.2 |
| 20260901150053 | 70 | 151 | 11.0 | 18.0 | 0.31 | 3.81 | 3.81 | 42 | 1007.1 |
| 20260901144548 | 72 | 115 | 5.0 | 8.0 | 0.00 | 3.50 | 3.50 | 35 | 1007.0 |
| 20260901143050 | 71 | 187 | 4.0 | 6.0 | 0.00 | 3.50 | 3.50 | 36 | 1006.8 |
| 20260901141547 | 71 | 124 | 1.0 | 5.0 | 0.37 | 3.50 | 3.50 | 37 | 1006.9 |
| 20260901140058 | 70 | 167 | 3.0 | 9.0 | 0.94 | 3.50 | 3.50 | 37 | 1007.1 |
| 20260901134604 | 70 | 217 | 2.0 | 8.0 | 2.60 | 3.50 | 3.50 | 39 | 1007.0 |
| 20260901133049 | 72 | 175 | 6.0 | 20.0 | 2.65 | 3.50 | 3.50 | 37 | 1007.4 |
| 20260901131545 | 68 | 164 | 5.0 | 15.0 | 2.31 | 3.13 | 3.13 | 42 | 1007.1 |
| 20260901130045 | 68 | 183 | 9.0 | 28.0 | 1.75 | 2.56 | 2.56 | 42 | 1006.9 |
| 20260901124510 | 66 | 183 | 10.0 | 15.0 | 0.07 | 0.88 | 0.88 | 42 | 1006.7 |
| 20260901123018 | 66 | 211 | 7.0 | 14.0 | 0.28 | 0.85 | 0.85 | 43 | 1006.7 |
| 20260901121506 | 65 | 204 | 7.0 | 15.0 | 0.65 | 0.82 | 0.82 | 43 | 1006.8 |
| 20260901120005 | 64 | 176 | 10.0 | 14.0 | 0.71 | 0.81 | 0.81 | 43 | 1006.9 |
| 20260901114504 | 64 | 165 | 9.0 | 14.0 | 0.74 | 0.81 | 0.81 | 42 | 1006.7 |
| 20260901113003 | 64 | 151 | 10.0 | 17.0 | 0.50 | 0.53 | 0.53 | 41 | 1006.8 |
| 20260901111559 | 64 | 168 | 9.0 | 18.0 | 0.15 | 0.18 | 0.18 | 40 | 1007.0 |
| 20260901110059 | 63 | 184 | 9.0 | 14.0 | 0.07 | 0.10 | 0.10 | 41 | 1007.2 |
| 20260901104557 | 62 | 161 | 5.0 | 9.0 | 0.04 | 0.07 | 0.07 | 42 | 1007.3 |
| 20260901103054 | 61 | 178 | 3.0 | 7.0 | 0.00 | 0.03 | 0.03 | 45 | 1007.5 |
| 20260901101522 | 60 | 132 | 3.0 | 7.0 | 0.00 | 0.03 | 0.03 | 46 | 1007.7 |
| 20260901100022 | 60 | 149 | 2.0 | 5.0 | 0.00 | 0.03 | 0.03 | 48 | 1008.0 |
| 20260901094519 | 57 | 117 | 0.0 | 2.0 | 0.00 | 0.03 | 0.03 | 51 | 1008.1 |
| 20260901093016 | 57 | 105 | 1.0 | 3.0 | 0.00 | 0.03 | 0.03 | 52 | 1007.9 |
| 20260901091514 | 56 | 76 | 2.0 | 4.0 | 0.00 | 0.03 | 0.03 | 53 | 1008.0 |
| 20260901090014 | 52 | 98 | 1.0 | 3.0 | 0.00 | 0.03 | 0.03 | 58 | 1008.0 |
| 20260901084511 | 52 | 89 | 0.0 | 1.0 | 0.00 | 0.03 | 0.03 | 55 | 1008.3 |
| 20260901083010 | 53 | 89 | 0.0 | 1.0 | 0.00 | 0.03 | 0.03 | 54 | 1008.5 |
| 20260901081506 | 53 | 46 | 0.0 | 2.0 | 0.00 | 0.03 | 0.03 | 54 | 1008.7 |
| 20260901080005 | 53 | 269 | 0.0 | 2.0 | 0.00 | 0.03 | 0.03 | 51 | 1009.0 |
| 20260901074503 | 53 | 46 | 0.0 | 2.0 | 0.00 | 0.03 | 0.03 | 51 | 1009.1 |
| 20260901073100 | 53 | 46 | 0.0 | 3.0 | 0.00 | 0.03 | 0.03 | 50 | 1009.4 |
| 20260901071556 | 54 | 145 | 1.0 | 3.0 | 0.00 | 0.03 | 0.03 | 48 | 1009.4 |
| 20260901070053 | 55 | 113 | 1.0 | 3.0 | 0.00 | 0.03 | 0.03 | 47 | 1009.7 |
| 20260901064548 | 56 | 46 | 1.0 | 3.0 | 0.00 | 0.03 | 0.03 | 46 | 1009.7 |
| 20260901063043 | 57 | 314 | 0.0 | 1.0 | 0.00 | 0.03 | 0.03 | 46 | 1009.7 |
| 20260901061542 | 58 | 105 | 1.0 | 2.0 | 0.00 | 0.03 | 0.03 | 43 | 1009.6 |
| 20260901060040 | 59 | 161 | 1.0 | 3.0 | 0.00 | 0.03 | 0.03 | 41 | 1009.7 |
| 20260901054513 | 59 | 53 | 0.0 | 3.0 | 0.00 | 0.03 | 0.03 | 41 | 1009.9 |
| 20260901053010 | 59 | 161 | 0.0 | 3.0 | 0.00 | 0.03 | 0.03 | 41 | 1009.9 |
| 20260901051557 | 58 | 250 | 0.0 | 2.0 | 0.00 | 0.03 | 0.03 | 42 | 1009.9 |